Knox, IN

3:38 PM CDT on May 25, 2017 (GMT -0500)
Starke County

Weather History for KOXI - July, 2013

Change the Weather History Date:

Thursday, July 11, 2013

  Actual Average (KRCR) Record (KRCR)
Temperature  
Mean Temperature 66 °F -  
Max Temperature 87 °F 84 °F 89 °F (2016)
Min Temperature 54 °F 63 °F 51 °F (2014)
Growing Degree Days 16 (Base 50)    
Moisture  
Dew Point 57 °F    
Average Humidity 78    
Maximum Humidity 100    
Minimum Humidity 46    
Precipitation  
Precipitation 0.00 in - - ()
Sea Level Pressure  
Sea Level Pressure 30.07 in    
Wind  
Wind Speed 3 mph (North)    
Max Wind Speed 14 mph    
Max Gust Speed 17 mph    
Visibility 8 miles    
Events      
Averages and records for this station are not official NWS values.
T = Trace of Precipitation, MM = Missing Value Source: NWS Daily Summary

Daily Weather History Graph

Daily Weather History Graph

Search for Another Location

Airport or City:

Trip Planner

Search our weather history database for the weather conditions in past years. The results will help you decide how hot, cold, wet, or windy it might be!

Date:

Astronomy

Jul. 11, 2013 Rise Set
Actual Time 5:23 AM CDT 8:20 PM CDT
Civil Twilight 4:50 AM CDT 8:53 PM CDT
Nautical Twilight 4:08 AM CDT 9:35 PM CDT
Astronomical Twilight 3:19 AM CDT 10:24 PM CDT
Moon 8:44 AM CDT (7/11) 9:57 PM CDT (7/11)
Length of Visible Light 16h 03m
Length of Day
14h 56m
Waxing Crescent, 11% of the Moon is Illuminated
Jul 11
Waxing Crescent
Jul 15
First Quarter
Jul 22
Full
Jul 29
Last Quarter
Aug 6
New

Hourly Weather History & Observations

Time (CDT) Temp. Dew Point Humidity Pressure Visibility Wind Dir Wind Speed Gust Speed Precip Events Conditions
12:15 AM 58.6 °F 58.6 °F 100% 30.01 in 7.0 mi Calm Calm - N/A   Clear
12:35 AM 58.1 °F 58.1 °F 100% 30.01 in 7.0 mi Calm Calm - N/A   Clear
12:55 AM 57.7 °F 57.9 °F 100% 30.01 in 0.8 mi Calm Calm - N/A   Unknown
1:15 AM 57.0 °F 57.0 °F 100% 30.01 in 0.5 mi Calm Calm - N/A   Unknown
1:35 AM 57.0 °F 57.2 °F 100% 30.01 in 4.0 mi Calm Calm - N/A   Clear
1:55 AM 56.7 °F 56.8 °F 100% 30.01 in 4.0 mi Calm Calm - N/A   Clear
2:15 AM 56.5 °F 56.5 °F 100% 30.01 in 7.0 mi Calm Calm - N/A   Clear
2:35 AM 56.3 °F 56.3 °F 100% 30.02 in 7.0 mi Calm Calm - N/A   Clear
2:55 AM 56.3 °F 56.3 °F 100% 30.02 in 4.0 mi Calm Calm - N/A   Clear
3:15 AM 55.9 °F 55.9 °F 100% 30.03 in 4.0 mi Calm Calm - N/A   Clear
3:35 AM 55.9 °F 55.9 °F 100% 30.03 in 5.0 mi Calm Calm - N/A   Clear
3:55 AM 55.8 °F 55.8 °F 100% 30.02 in 4.0 mi Calm Calm - N/A   Clear
4:15 AM 55.6 °F 55.6 °F 100% 30.03 in 2.5 mi Calm Calm - N/A   Clear
4:35 AM 55.2 °F 55.2 °F 100% 30.03 in 1.0 mi Calm Calm - N/A   Unknown
4:55 AM 54.9 °F 54.9 °F 100% 30.03 in 0.2 mi Calm Calm - N/A   Unknown
5:15 AM 55.2 °F 55.2 °F 100% 30.04 in 0.2 mi Calm Calm - N/A   Mostly Cloudy
5:35 AM 54.7 °F 54.7 °F 100% 30.05 in 1.0 mi Calm Calm - N/A   Mostly Cloudy
5:55 AM 55.2 °F 55.2 °F 100% 30.05 in 0.2 mi Calm Calm - N/A   Unknown
6:15 AM 55.6 °F 55.6 °F 100% 30.05 in 0.5 mi Calm Calm - N/A   Unknown
6:35 AM 56.7 °F 56.7 °F 100% 30.07 in 5.0 mi Calm Calm - N/A   Clear
6:55 AM 58.5 °F 58.5 °F 100% 30.07 in 7.0 mi Calm Calm - N/A   Clear
7:15 AM 60.4 °F 60.4 °F 100% 30.08 in 7.0 mi NNW 3.5 mph - N/A   Clear
7:35 AM 62.4 °F 62.6 °F 100% 30.08 in 7.0 mi North 3.5 mph - N/A   Clear
7:55 AM 64.9 °F 64.9 °F 100% 30.08 in 10.0 mi North 6.9 mph - N/A   Clear
8:15 AM 67.1 °F 66.0 °F 96% 30.08 in 10.0 mi North 5.8 mph - N/A   Clear
8:35 AM 68.7 °F 65.8 °F 90% 30.08 in 10.0 mi North 5.8 mph - N/A   Clear
8:55 AM 70.0 °F 65.1 °F 85% 30.08 in 10.0 mi Calm Calm - N/A   Clear
9:15 AM 70.9 °F 63.9 °F 78% 30.08 in 10.0 mi North 8.1 mph 16.1 mph N/A   Clear
9:35 AM 71.8 °F 63.5 °F 75% 30.08 in 10.0 mi North 4.6 mph - N/A   Clear
9:55 AM 72.1 °F 62.2 °F 71% 30.08 in 10.0 mi NNW 13.8 mph 17.3 mph N/A   Clear
10:15 AM 73.0 °F 61.3 °F 67% 30.08 in 10.0 mi NNW 11.5 mph 17.3 mph N/A   Scattered Clouds
10:35 AM 73.2 °F 61.5 °F 67% 30.09 in 10.0 mi North 8.1 mph - N/A   Scattered Clouds
10:55 AM 74.1 °F 59.9 °F 61% 30.09 in 10.0 mi NNE 8.1 mph - N/A   Scattered Clouds
11:15 AM 74.1 °F 58.5 °F 58% 30.09 in 10.0 mi NNE 10.4 mph - N/A   Scattered Clouds
11:35 AM 75.2 °F 58.1 °F 55% 30.09 in 10.0 mi North 10.4 mph 16.1 mph N/A   Mostly Cloudy
11:55 AM 74.5 °F 56.7 °F 54% 30.09 in 10.0 mi NNE 8.1 mph - N/A   Scattered Clouds
12:15 PM 74.1 °F 55.6 °F 52% 30.09 in 10.0 mi NE 8.1 mph 16.1 mph N/A   Scattered Clouds
12:35 PM 75.7 °F 54.9 °F 48% 30.09 in 10.0 mi NE 9.2 mph - N/A   Scattered Clouds
12:55 PM 76.3 °F 54.9 °F 47% 30.09 in 10.0 mi NE 8.1 mph - N/A   Scattered Clouds
1:15 PM 76.3 °F 55.2 °F 48% 30.09 in 10.0 mi NE 11.5 mph - N/A   Scattered Clouds
1:35 PM 76.6 °F 54.5 °F 46% 30.09 in 10.0 mi NNE 8.1 mph - N/A   Scattered Clouds
1:55 PM 76.8 °F 54.7 °F 46% 30.09 in 10.0 mi North 9.2 mph - N/A   Scattered Clouds
2:15 PM 77.2 °F 55.4 °F 47% 30.08 in 10.0 mi NNE 6.9 mph - N/A   Scattered Clouds
2:35 PM 75.7 °F 55.8 °F 50% 30.08 in 10.0 mi North 10.4 mph - N/A   Mostly Cloudy
2:55 PM 75.7 °F 57.0 °F 52% 30.08 in 10.0 mi North 8.1 mph - N/A   Scattered Clouds
3:15 PM 77.4 °F 55.0 °F 46% 30.08 in 10.0 mi North 13.8 mph - N/A   Clear
3:35 PM 77.4 °F 55.2 °F 46% 30.08 in 10.0 mi North 11.5 mph 17.3 mph N/A   Clear
3:55 PM 76.8 °F 54.3 °F 46% 30.08 in 10.0 mi North 13.8 mph - N/A   Clear
4:15 PM 76.5 °F 55.2 °F 48% 30.09 in 10.0 mi North 13.8 mph - N/A   Clear
4:35 PM 75.9 °F 54.9 °F 48% 30.08 in 10.0 mi North 11.5 mph - N/A   Clear
4:55 PM 75.7 °F 54.9 °F 48% 30.08 in 10.0 mi NNW 13.8 mph - N/A   Clear
5:15 PM 75.0 °F 54.7 °F 49% 30.08 in 10.0 mi North 12.7 mph - N/A   Clear
5:35 PM 74.5 °F 54.5 °F 50% 30.08 in 10.0 mi NNW 10.4 mph - N/A   Clear
5:55 PM 74.3 °F 54.3 °F 50% 30.08 in 10.0 mi North 10.4 mph - N/A   Clear
6:15 PM 73.8 °F 54.0 °F 50% 30.08 in 10.0 mi North 8.1 mph - N/A   Clear
6:35 PM 73.4 °F 54.7 °F 52% 30.07 in 10.0 mi NNW 8.1 mph - N/A   Clear
6:55 PM 72.9 °F 55.4 °F 54% 30.07 in 10.0 mi NNW 8.1 mph - N/A   Clear
7:15 PM 71.6 °F 55.0 °F 56% 30.07 in 10.0 mi NNW 8.1 mph - N/A   Clear
7:35 PM 70.0 °F 55.2 °F 59% 30.07 in 10.0 mi North 6.9 mph - N/A   Clear
7:55 PM 67.6 °F 55.9 °F 66% 30.07 in 10.0 mi North 5.8 mph - N/A   Clear
8:15 PM 64.8 °F 56.8 °F 75% 30.06 in 10.0 mi North 5.8 mph - N/A   Clear
8:35 PM 62.4 °F 59.2 °F 89% 30.06 in 10.0 mi NNW 5.8 mph - N/A   Clear
8:55 PM 61.0 °F 58.8 °F 93% 30.06 in 7.0 mi Calm Calm - N/A   Clear
9:15 PM 61.0 °F 58.5 °F 91% 30.07 in 10.0 mi NNW 4.6 mph - N/A   Clear
9:35 PM 59.5 °F 57.6 °F 93% 30.07 in 10.0 mi NNW 4.6 mph - N/A   Clear
9:55 PM 58.3 °F 57.0 °F 96% 30.08 in 10.0 mi NW 3.5 mph - N/A   Clear
10:15 PM 58.3 °F 57.4 °F 97% 30.08 in 10.0 mi North 3.5 mph - N/A   Clear
10:35 PM 58.1 °F 57.4 °F 97% 30.08 in 10.0 mi Calm Calm - N/A   Clear
10:55 PM 57.4 °F 57.0 °F 99% 30.08 in 10.0 mi Calm Calm - N/A   Clear
11:15 PM 56.5 °F 56.3 °F 99% 30.08 in 10.0 mi Calm Calm - N/A   Clear
11:35 PM 55.9 °F 55.9 °F 100% 30.08 in 10.0 mi Calm Calm - N/A   Clear
11:55 PM 55.4 °F 55.6 °F 100% 30.08 in 10.0 mi Calm Calm - N/A   Clear